Volver al catálogo

CZ-6A DEB

ActivoPO
NORAD 61151·DEBRIS·🇨🇳 China

Lanzado Aug 6, 2024 desde Taiyuan Satellite Launch Center

Loading…

Próximos Pases (próximas 24 horas)

TLE

ActualizadoSource: Space-Track

Época: Sep 14, 2026, 18:30 UTC

1 61151U 24140QV  26257.77096826  .00004653  00000-0  50871-3 0  9994
2 61151  89.1608 273.2871 0118847 211.0806 148.3353 14.82586831111124

Sigue CZ-6A DEB en tiempo real con AllMySat

Download on the App Store